Regional Weather Roundup
Issued by NWS

Home | Current Version | Previous Version | Text Only | Print | Product List | Glossary On
Versions: 1 2 3 4 5 6 7 8 9 10 11 12 13 14 15 16 17 18 19 20 21 22 23 24 25 26 27 28 29 30 31 32 33 34 35 36 37 38 39 40 41 42 43 44 45 46 47 48 49 50
000
ASUS43 KDTX 301610
RWRMI
MICHIGAN HOURLY REGIONAL WEATHER ROUNDUP
NATIONAL WEATHER SERVICE DETROIT/PONTIAC MI
1200 PM EDT TUE SEP 30 2014

NOTE: "FAIR" INDICATES FEW OR NO CLOUDS BELOW 12,000 FEET WITH NO
SIGNIFICANT WEATHER AND/OR OBSTRUCTION TO VISIBILITY.

MIZ047>049-052>055-059>063-066>070-074>076-081>083-301700-
SOUTHEAST LOWER MICHIGAN

CITY           SKY/WX    TMP DP  RH WIND       PRES   REMARKS
ADRIAN         CLOUDY    56  50  80 N9        29.99S
ALMA           CLOUDY    53  46  76 N7        30.02R
ANN ARBOR      CLOUDY    54  48  80 N10       29.97S
BAD AXE        LGT RAIN  50  50 100 N15       29.97S
DETROIT CITY     N/A    N/A N/A N/A MISG        N/A
DETROIT        CLOUDY    56  50  80 N9        29.97R
FLINT          CLOUDY    53  47  79 N9        30.00R HAZE
GROSSE ILE     CLOUDY    55  52  88 N6        29.95S
HILLSDALE      CLOUDY    53  51  94 N8        29.99S
HOWELL         CLOUDY    51  48  90 NW6       29.99S

CITY           SKY/WX    TMP DP  RH WIND       PRES   REMARKS
JACKSON        CLOUDY    53  50  89 VRB3      29.99S
LAMBERTVILLE   CLOUDY    55  52  88 N6        29.98R
LANSING        CLOUDY    53  45  74 N8        30.01R
LAPEER         NOT AVBL
MASON          CLOUDY    52  47  84 N6        30.00R
MONROE         CLOUDY    55  52  88 NW8       29.96R
MT. CLEMENS    CLOUDY    55  52  90 N10       29.93S
PONTIAC        CLOUDY    54  48  80 NW12      29.96S
PORT HOPE        N/A     53  49  86 VRB5      29.96R
PORT HURON     CLOUDY    54  52  94 NW7       29.95S
TRI CITIES     CLOUDY    54  45  71 N8        30.01S
YPSILANTI      CLOUDY    59  49  69 N8        29.98R
$$
MIZ043>046-050>051-056>058-064>065-071>073-077>080-301700-
SOUTHWEST LOWER MICHIGAN

CITY           SKY/WX    TMP DP  RH WIND       PRES   REMARKS
BATTLE CREEK   CLOUDY    53  46  77 N3        30.01S
BIG RAPIDS     CLOUDY    49  48  97 N8        30.03R
COLDWATER      CLOUDY    54  49  83 N7        30.00S
HOLLAND        CLOUDY    54  46  74 E6        30.04
GRAND RAPIDS   CLOUDY    54  47  77 NE7       30.02S
KALAMAZOO      CLOUDY    52  45  77 N6        30.03R
MARSHALL       CLOUDY    51  48  90 N3        29.99S FOG
MUSKEGON       CLOUDY    53  44  71 NE8       30.04S
$$
MIZ016>042-301700-
NORTHERN LOWER MICHIGAN

CITY           SKY/WX    TMP DP  RH WIND       PRES   REMARKS
ALPENA         CLOUDY    49  45  86 N13       30.03R
BEAVER ISLAND  CLOUDY    50  45  81 N7        30.06S
BELLAIRE       CLOUDY    49  44  81 N9        30.05S
CADILLAC       CLOUDY    46  44  92 N6        30.03R
CHARLEVOIX     CLOUDY    49  45  88 NE8       30.08S
FRANKFORT      CLOUDY    51  45  79 N3        30.06R
GAYLORD        CLOUDY    46  43  89 NE9       30.03S
GRAYLING       CLOUDY    50  45  81 N6        30.02S
HARBOR SPRINGS CLOUDY    47  43  85 NE7       30.06S
HOUGHTON LAKE  CLOUDY    50  44  80 NE9       30.02R
OSCODA         CLOUDY    49  48  97 N13       29.99S FOG
PELLSTON       CLOUDY    48  43  82 N8        30.06S
TRAVERSE CITY  CLOUDY    50  43  77 NE7       30.04R
$$
MIZ007>008-015-301700-
EASTERN UPPER MICHIGAN

CITY           SKY/WX    TMP DP  RH WIND       PRES   REMARKS
MACKINAC ISLAN CLOUDY    48  44  86 NE7       30.06S
NEWBERRY       CLOUDY    46  42  89 N7        30.08R
S. S. MARIE    PTSUNNY   49  40  71 VRB3      30.07S
$$
MIZ004>006-011>014-085-301700-
CENTRAL UPPER MICHIGAN

CITY           SKY/WX    TMP DP  RH WIND       PRES   REMARKS
MANISTIQUE     CLOUDY    48  42  80 N8        30.08S
SAWYER-GWINN   CLOUDY    43  37  81 N13       30.11S
$$
MIZ001>003-009>011-084-301700-
WESTERN UPPER MICHIGAN

CITY           SKY/WX    TMP DP  RH WIND       PRES   REMARKS
IRON MOUNTAIN  CLOUDY    45  38  76 N9        30.11S
HOUGHTON       SUNNY     48  37  65 E8        30.14S
COPPER HARBOR    N/A     48  36  63 E5        30.15F
$$

ABBREVIATIONS USED IN REMARKS
   TC - TEMPERATURE IN CELSIUS
  WCI - WIND CHILL INDEX
   HX - HEAT INDEX
  VSB - VISIBILITY



USA.gov is the U.S. government's official web portal to all federal, state and local government web resources and services.